Weather History for KAHN - February, 2013

Change the Weather History Date:

Tuesday, February 26, 2013

  Actual Average Record
Temperature  
Mean Temperature 41 °F 50 °F  
Max Temperature 46 °F 61 °F 81 °F (1996)
Min Temperature 35 °F 39 °F 10 °F (1967)
Degree Days  
Heating Degree Days 24 15  
Month to date heating degree days 510 467  
Since 1 July heating degree days 1979 2224  
Moisture  
Dew Point 37 °F    
Average Humidity 88    
Maximum Humidity 100    
Minimum Humidity 76    
Precipitation  
Precipitation 1.55 in 0.15 in 2.50 in (1899)
Month to date precipitation 6.36 4.16  
Year to date precipitation 11.33 8.21  
Snow  
Snow 0.00 in 0.00 in 0.00 in (2002)
Month to date snowfall 0.0 0.5  
Since 1 July snowfall 0.0 2.0  
Snow Depth -    
Sea Level Pressure  
Sea Level Pressure 29.73 in    
Wind  
Wind Speed 10 mph (NE)    
Max Wind Speed 24 mph    
Max Gust Speed 32 mph    
Visibility 4 miles    
Events Rain    
T = Trace of Precipitation, MM = Missing Value Source: NWS Daily Summary

Daily Weather History Graph

Daily Weather History Graph

Search for Another Location

Airport or City:

Trip Planner

Search our weather history database for the weather conditions in past years. The results will help you decide how hot, cold, wet, or windy it might be!

Date:

Astronomy

Feb. 26, 2013 Rise Set
Actual Time 7:05 AM EST 6:27 PM EST
Civil Twilight 6:40 AM EST 6:52 PM EST
Nautical Twilight 6:11 AM EST 7:21 PM EST
Astronomical Twilight 5:42 AM EST 7:50 PM EST
Moon 7:36 PM EST (2/26) 7:11 AM EST (2/26)
Length of Visible Light 12h 12m
Length of Day
11h 22m
Full, 99% of the Moon is Illuminated
Feb 26
Full
Mar 4
Last Quarter
Mar 11
New
Mar 19
First Quarter
Mar 27
Full

Hourly Weather History & Observations

Time (EST) Temp. Windchill Dew Point Humidity Pressure Visibility Wind Dir Wind Speed Gust Speed Precip Events Conditions
12:22 AM 37.4 °F 28.2 °F 35.6 °F 93% 29.93 in 3.0 mi ENE 16.1 mph 24.2 mph 0.04 in Rain Light Rain
12:33 AM 37.4 °F 28.9 °F 35.6 °F 93% 29.92 in 1.8 mi ENE 13.8 mph - 0.08 in Rain Heavy Rain
12:46 AM 37.4 °F 28.2 °F 35.6 °F 93% 29.91 in 3.0 mi East 16.1 mph 23.0 mph 0.14 in Rain Rain
12:47 AM 37.0 °F 28.9 °F 36.0 °F 96% 29.93 in 3.0 mi East 12.7 mph 23.0 mph 0.14 in Rain Light Rain
1:06 AM 37.4 °F 28.5 °F 35.6 °F 93% 29.91 in 5.0 mi ENE 15.0 mph 20.7 mph 0.02 in Rain Light Rain
1:19 AM 37.4 °F 28.9 °F 35.6 °F 93% 29.90 in 5.0 mi East 13.8 mph - 0.03 in Rain Light Rain
1:51 AM 37.0 °F 27.7 °F 35.1 °F 93% 29.89 in 4.0 mi East 16.1 mph 21.9 mph 0.09 in Rain Rain
2:51 AM 36.0 °F 27.1 °F 35.1 °F 97% 29.84 in 6.0 mi ENE 13.8 mph 23.0 mph 0.12 in Rain Light Rain
3:33 AM 35.6 °F 24.8 °F 33.8 °F 93% 29.79 in 1.8 mi ENE 19.6 mph 24.2 mph 0.10 in Rain Heavy Rain
3:47 AM 35.6 °F 26.2 °F 33.8 °F 93% 29.78 in 2.5 mi ENE 15.0 mph 21.9 mph 0.22 in Rain Heavy Rain
3:51 AM 36.0 °F 27.1 °F 34.0 °F 93% 29.80 in 2.0 mi ENE 13.8 mph 21.9 mph 0.26 in Rain Heavy Rain
4:16 AM 35.6 °F 27.5 °F 33.8 °F 93% 29.80 in 3.0 mi NE 11.5 mph 20.7 mph 0.10 in Rain Light Rain
4:28 AM 35.6 °F 27.5 °F 33.8 °F 93% 29.80 in 2.0 mi NE 11.5 mph - 0.17 in Rain Heavy Rain
4:51 AM 35.1 °F 26.9 °F 34.0 °F 96% 29.80 in 2.0 mi ENE 11.5 mph - 0.34 in Rain Heavy Rain
5:33 AM 35.6 °F 27.1 °F 33.8 °F 93% 29.75 in 3.0 mi ENE 12.7 mph - 0.24 in Rain Rain
5:51 AM 36.0 °F 27.1 °F 34.0 °F 93% 29.76 in 4.0 mi ENE 13.8 mph 24.2 mph 0.30 in Rain Light Rain
6:13 AM 35.6 °F 28.0 °F 35.6 °F 100% 29.76 in 2.5 mi East 10.4 mph - 0.10 in Rain Rain
6:23 AM 35.6 °F 25.5 °F 35.6 °F 100% 29.74 in 4.0 mi ENE 17.3 mph 23.0 mph 0.12 in Rain Light Rain
6:51 AM 36.0 °F 25.6 °F 35.1 °F 97% 29.74 in 6.0 mi ENE 18.4 mph 24.2 mph 0.13 in Rain Light Rain
7:51 AM 36.0 °F 25.6 °F 35.1 °F 97% 29.72 in 9.0 mi East 18.4 mph 25.3 mph 0.09 in   Overcast
8:44 AM 37.4 °F 28.9 °F 35.6 °F 93% 29.68 in 10.0 mi East 13.8 mph 25.3 mph 0.01 in   Overcast
8:51 AM 37.0 °F 28.1 °F 36.0 °F 96% 29.70 in 10.0 mi East 15.0 mph 21.9 mph 0.01 in   Overcast
9:49 AM 37.4 °F 26.4 °F 35.6 °F 93% 29.60 in 3.0 mi East 23.0 mph 28.8 mph 0.00 in   Overcast
9:51 AM 37.0 °F 26.4 °F 36.0 °F 96% 29.61 in 2.5 mi East 20.7 mph 28.8 mph 0.00 in   Overcast
10:02 AM 37.4 °F 26.9 °F 35.6 °F 93% 29.59 in 1.2 mi East 20.7 mph 29.9 mph N/A   Overcast
10:29 AM 37.4 °F 30.3 °F 37.4 °F 100% 29.70 in 2.0 mi West 10.4 mph 17.3 mph N/A   Overcast
10:39 AM 37.4 °F 32.1 °F 37.4 °F 100% 29.69 in 1.2 mi NNE 6.9 mph - 0.00 in Rain Light Rain
10:51 AM 37.9 °F 32.7 °F 37.0 °F 97% 29.69 in 1.0 mi NNE 6.9 mph - 0.02 in Rain Light Rain
10:59 AM 37.4 °F 33.8 °F 37.4 °F 100% 29.68 in 1.2 mi North 4.6 mph - 0.01 in Rain Light Rain
11:19 AM 37.4 °F 31.4 °F 37.4 °F 100% 29.67 in 1.5 mi NE 8.1 mph - 0.05 in Rain Rain
11:27 AM 39.2 °F 32.5 °F 37.4 °F 93% 29.64 in 3.0 mi ENE 10.4 mph - 0.06 in Rain Light Rain
11:51 AM 39.0 °F 31.4 °F 37.9 °F 96% 29.65 in 8.0 mi ENE 12.7 mph - 0.06 in   Overcast
11:59 AM 39.2 °F 32.5 °F 37.4 °F 93% 29.63 in 8.0 mi ENE 10.4 mph - N/A   Overcast
12:51 PM 39.9 °F 35.1 °F 39.0 °F 97% 29.65 in 2.5 mi NE 6.9 mph - N/A   Overcast
1:41 PM 41.0 °F 39.0 °F 39.2 °F 93% 29.62 in 3.0 mi NE 3.5 mph - N/A   Overcast
1:51 PM 41.0 °F - 39.9 °F 96% 29.64 in 4.0 mi Calm Calm - N/A   Overcast
2:17 PM 42.8 °F 41.1 °F 39.2 °F 87% 29.62 in 2.5 mi NE 3.5 mph - N/A   Overcast
2:36 PM 42.8 °F - 41.0 °F 93% 29.63 in 4.0 mi Calm Calm - N/A   Overcast
2:51 PM 43.0 °F 41.3 °F 41.0 °F 93% 29.64 in 5.0 mi Variable 3.5 mph - N/A   Overcast
3:51 PM 44.1 °F 41.5 °F 42.1 °F 93% 29.62 in 7.0 mi NNE 4.6 mph - N/A   Overcast
4:21 PM 44.6 °F - 42.8 °F 93% 29.60 in 8.0 mi Calm Calm - N/A   Overcast
4:51 PM 46.0 °F - 43.0 °F 89% 29.62 in 7.0 mi Calm Calm - N/A   Overcast
5:51 PM 46.0 °F 44.8 °F 44.1 °F 93% 29.64 in 7.0 mi West 3.5 mph - N/A   Overcast
6:51 PM 44.1 °F 40.8 °F 43.0 °F 96% 29.68 in 6.0 mi NW 5.8 mph - N/A   Overcast
7:51 PM 43.0 °F - 41.0 °F 93% 29.70 in 5.0 mi Calm Calm - N/A   Mostly Cloudy
8:01 PM 42.8 °F - 41.0 °F 93% 29.69 in 5.0 mi Calm Calm - N/A   Scattered Clouds
8:21 PM 41.0 °F - 39.2 °F 93% 29.69 in 1.8 mi Calm Calm - N/A   Clear
8:34 PM 41.0 °F 39.0 °F 39.2 °F 93% 29.70 in 3.0 mi West 3.5 mph - N/A   Partly Cloudy
8:51 PM 41.0 °F 39.0 °F 39.9 °F 96% 29.72 in 3.0 mi WSW 3.5 mph - N/A   Clear
9:07 PM 41.0 °F 39.0 °F 39.2 °F 93% 29.71 in 2.5 mi West 3.5 mph - N/A   Clear
9:14 PM 41.0 °F 38.0 °F 39.2 °F 93% 29.72 in 3.0 mi West 4.6 mph - N/A   Clear
9:51 PM 43.0 °F 37.2 °F 39.0 °F 86% 29.75 in 10.0 mi West 10.4 mph 21.9 mph N/A   Clear
10:51 PM 42.1 °F 37.1 °F 36.0 °F 79% 29.77 in 10.0 mi West 8.1 mph - N/A   Clear
11:51 PM 44.1 °F 39.5 °F 35.1 °F 71% 29.77 in 10.0 mi West 8.1 mph - N/A   Mostly Cloudy